Weather in Novy Poselok

Russia / Republic of Karelia     62°29′38″N   34°21′04″E
temp.,
°C
wind,
m/s
gust,
m/s
humid.,
%
clouds,
%
prec.,
mm/h
press.,
hPa
HPBL,
m
1 march, mon
mon100:00−2wsw389536 0.0 1014179
03:00−2wsw5119662 0.0 1014381
06:00+1wsw51299100 0.3 1011451
09:00+2w51296100 0.4 1010545
12:00+1w41298100 0.0 1008560
15:00+2wsw51499100 0.1 1007633
18:00+2w41198100 0.3 1004472
21:00+1w6139898 0.6 1003756
2 march, tue
tue200:00−1wnw5148561 0.1 1003512
03:00−2w5148630 0.1 1003501
06:00−3wnw513850 0.0 1002508
09:00−3wnw5128817 0.0 1004617
12:00−1nw61179100 0.1 10051470
15:00−2nw6127771 0.1 10081042
18:00−5nw4128174 0.0 1010467
21:00−7wnw398537 0.0 1012202
3 march, wed
wed300:00−7w369146 0.0 1011153
03:00−6w499352 0.0 1011302
06:00−5wnw4109487 0.1 1009391
09:00−5wnw4109287 0.1 1009364
12:00−3wnw479274 0.0 1008451
15:00−1w488685 0.1 1007783
18:00−3wsw379096 0.0 1003184
21:00−3s249698 0.1 99894
4 march, thu
thu400:00−3ene4897100 4.8 994356
03:00−4nne51194100 7.3 994591
06:00−8nnw489590 0.1 995218
09:00−8n499493 0.1 997375
12:00−6n488997 0.0 998577
15:00−5nnw488898 0.0 999748
18:00−7nnw41089100 0.0 1000443
21:00−10nw3594100 0.0 1002101
5 march, fri
fri500:00−11nnw239670 0.0 100382
03:00−12n129683 0.1 100521
06:00−14nnw129399 0.0 100620
09:00−12n139695 0.1 1008124
12:00−10nne2389100 0.3 1010550
15:00−9n2385100 0.4 1012646
18:00−12n1293100 0.1 101321
21:00−14n129696 0.2 101520